Accueil
METAR-TAF:

METAR-TAF

Aéroports :

Sumter, Caroline du Sud, États-Unis

latitude: 33-59-42N, longitude: 080-21-41W, altitude: 55 m

Observation

Le bulletin a été fait il y a 29 minutes, à 21:35 UTC
Vent 10 kt de ouest/sud-ouest avec des rafales jusqu'à 20 kt
Température 13°C
Humidité 33%
Pression 1017 hPa
Visibilité: 16.1 km
Ciel couvert à une hauteur de 8000 ft
faible bruine

METAR: KSMS 282135Z AUTO 25010G20KT 10SM -DZ OVC080 13/M03 A3002 RMK AO2

Heure: 17:04 (22:04 UTC)


TAF: absent

Observations et prévisions météorologiques de plus de 4000 aéroports (messages METAR et TAF).

Les stations disponibles sont représentées par des disques jaunes et rouges sur la carte.

Passer la souris dessus pour voir le nom de la station.

Cliquer dessus pour voir les observations et prévisions météorologiques.

Pour changer de carte: cliquez sur les boutons verts avec une croix noire pour zoomer, sur le bouton vert avec un tiret pour effectuer un zoom arrière, ou sur les flèches vertes pour les cartes adjacentes.


METAR-TAF: